Year,Month,Day,Hour,Minute,Value (Times are PST for windspeed in km/hr)
2008,06,21,00,00,1.20
2008,06,21,00,01,1.00
2008,06,21,00,02,0.70
2008,06,21,00,03,0.40
2008,06,21,00,04,0.00
2008,06,21,00,05,0.00
2008,06,21,00,06,0.00
2008,06,21,00,07,0.00
2008,06,21,00,08,0.00
2008,06,21,00,09,0.00
2008,06,21,00,10,0.00
2008,06,21,00,11,0.00
2008,06,21,00,12,0.00
2008,06,21,00,13,0.10
2008,06,21,00,14,0.00
2008,06,21,00,15,0.00
2008,06,21,00,16,0.00
2008,06,21,00,17,0.10
2008,06,21,00,18,0.90
2008,06,21,00,19,0.40
2008,06,21,00,20,0.20
2008,06,21,00,21,0.20
2008,06,21,00,22,0.20
2008,06,21,00,23,0.20
2008,06,21,00,24,0.00
2008,06,21,00,25,0.20
2008,06,21,00,26,0.40
2008,06,21,00,27,0.30
2008,06,21,00,28,1.40
2008,06,21,00,29,0.20
2008,06,21,00,30,0.10
2008,06,21,00,31,0.00
2008,06,21,00,32,0.00
2008,06,21,00,33,0.20
2008,06,21,00,34,0.10
2008,06,21,00,35,2.00
2008,06,21,00,36,2.50
2008,06,21,00,37,4.70
2008,06,21,00,38,4.80
2008,06,21,00,39,4.70
2008,06,21,00,40,4.40
2008,06,21,00,41,4.10
2008,06,21,00,42,2.70
2008,06,21,00,43,2.30
2008,06,21,00,44,2.00
2008,06,21,00,45,2.30
2008,06,21,00,46,2.30
2008,06,21,00,47,1.50
2008,06,21,00,48,2.30
2008,06,21,00,49,2.50
2008,06,21,00,50,2.20
2008,06,21,00,51,2.40
2008,06,21,00,52,1.30
2008,06,21,00,53,0.70
2008,06,21,00,54,0.40
2008,06,21,00,55,0.20
2008,06,21,00,56,0.30
2008,06,21,00,57,0.10
2008,06,21,00,58,0.70
2008,06,21,00,59,1.70
2008,06,21,01,00,2.80
2008,06,21,01,01,2.10
2008,06,21,01,02,1.90
2008,06,21,01,03,2.30
2008,06,21,01,04,2.20
2008,06,21,01,05,1.20
2008,06,21,01,06,1.20
2008,06,21,01,07,0.00
2008,06,21,01,08,0.40
2008,06,21,01,09,0.60
2008,06,21,01,10,0.90
2008,06,21,01,11,0.60
2008,06,21,01,12,0.10
2008,06,21,01,13,0.10
2008,06,21,01,14,0.00
2008,06,21,01,15,0.10
2008,06,21,01,16,0.10
2008,06,21,01,17,0.10
2008,06,21,01,18,0.00
2008,06,21,01,19,0.10
2008,06,21,01,20,0.20
2008,06,21,01,21,0.20
2008,06,21,01,22,0.40
2008,06,21,01,23,0.30
2008,06,21,01,24,0.10
2008,06,21,01,25,0.00
2008,06,21,01,26,0.10
2008,06,21,01,27,0.10
2008,06,21,01,28,0.00
2008,06,21,01,29,0.10
2008,06,21,01,30,0.00
2008,06,21,01,31,0.40
2008,06,21,01,32,0.00
2008,06,21,01,33,0.10
2008,06,21,01,34,0.00
2008,06,21,01,35,0.50
2008,06,21,01,36,2.70
2008,06,21,01,37,2.70
2008,06,21,01,38,2.90
2008,06,21,01,39,2.20
2008,06,21,01,40,4.10
2008,06,21,01,41,4.10
2008,06,21,01,42,4.60
2008,06,21,01,43,4.40
2008,06,21,01,44,3.50
2008,06,21,01,45,3.30
2008,06,21,01,46,2.40
2008,06,21,01,47,2.40
2008,06,21,01,48,0.70
2008,06,21,01,49,0.50
2008,06,21,01,50,0.40
2008,06,21,01,51,1.60
2008,06,21,01,52,0.50
2008,06,21,01,53,0.40
2008,06,21,01,54,1.20
2008,06,21,01,55,1.40
2008,06,21,01,56,0.50
2008,06,21,01,57,0.10
2008,06,21,01,58,0.10
2008,06,21,01,59,0.00
2008,06,21,02,00,0.00
2008,06,21,02,01,0.00
2008,06,21,02,02,0.00
2008,06,21,02,03,0.00
2008,06,21,02,04,0.00
2008,06,21,02,05,0.00
2008,06,21,02,06,0.00
2008,06,21,02,07,0.10
2008,06,21,02,08,1.10
2008,06,21,02,09,1.60
2008,06,21,02,10,2.60
2008,06,21,02,11,3.00
2008,06,21,02,12,4.70
2008,06,21,02,13,4.60
2008,06,21,02,14,3.50
2008,06,21,02,15,3.20
2008,06,21,02,16,2.50
2008,06,21,02,17,3.80
2008,06,21,02,18,2.20
2008,06,21,02,19,1.40
2008,06,21,02,20,2.50
2008,06,21,02,21,3.40
2008,06,21,02,22,1.60
2008,06,21,02,23,1.50
2008,06,21,02,24,2.00
2008,06,21,02,25,0.80
2008,06,21,02,26,0.50
2008,06,21,02,27,1.60
2008,06,21,02,28,1.40
2008,06,21,02,29,1.50
2008,06,21,02,30,3.00
2008,06,21,02,31,3.50
2008,06,21,02,32,2.90
2008,06,21,02,33,2.90
2008,06,21,02,34,3.10
2008,06,21,02,35,3.60
2008,06,21,02,36,3.70
2008,06,21,02,37,3.60
2008,06,21,02,38,3.40
2008,06,21,02,39,3.00
2008,06,21,02,40,2.60
2008,06,21,02,41,1.80
2008,06,21,02,42,2.00
2008,06,21,02,43,2.70
2008,06,21,02,44,2.20
2008,06,21,02,45,1.50
2008,06,21,02,46,2.80
2008,06,21,02,47,2.50
2008,06,21,02,48,1.30
2008,06,21,02,49,0.90
2008,06,21,02,50,1.20
2008,06,21,02,51,2.30
2008,06,21,02,52,1.30
2008,06,21,02,53,1.90
2008,06,21,02,54,2.10
2008,06,21,02,55,1.90
2008,06,21,02,56,0.90
2008,06,21,02,57,0.00
2008,06,21,02,58,0.10
2008,06,21,02,59,0.10
2008,06,21,03,00,0.30
2008,06,21,03,01,0.70
2008,06,21,03,02,0.10
2008,06,21,03,03,0.10
2008,06,21,03,04,0.20
2008,06,21,03,05,0.00
2008,06,21,03,06,0.00
2008,06,21,03,07,0.00
2008,06,21,03,08,0.00
2008,06,21,03,09,0.00
2008,06,21,03,10,0.10
2008,06,21,03,11,0.00
2008,06,21,03,12,0.00
2008,06,21,03,13,0.00
2008,06,21,03,14,0.00
2008,06,21,03,15,0.00
2008,06,21,03,16,0.00
2008,06,21,03,17,0.00
2008,06,21,03,18,0.00
2008,06,21,03,19,0.00
2008,06,21,03,20,0.00
2008,06,21,03,21,0.00
2008,06,21,03,22,0.10
2008,06,21,03,23,0.40
2008,06,21,03,24,0.00
2008,06,21,03,25,3.20
2008,06,21,03,26,3.60
2008,06,21,03,27,3.50
2008,06,21,03,28,2.60
2008,06,21,03,29,3.00
2008,06,21,03,30,1.50
2008,06,21,03,31,0.60
2008,06,21,03,32,0.20
2008,06,21,03,33,1.60
2008,06,21,03,34,0.80
2008,06,21,03,35,0.90
2008,06,21,03,36,0.90
2008,06,21,03,37,1.30
2008,06,21,03,38,1.80
2008,06,21,03,39,0.50
2008,06,21,03,40,0.40
2008,06,21,03,41,0.60
2008,06,21,03,42,0.30
2008,06,21,03,43,0.10
2008,06,21,03,44,0.50
2008,06,21,03,45,0.40
2008,06,21,03,46,0.50
2008,06,21,03,47,1.30
2008,06,21,03,48,1.90
2008,06,21,03,49,2.10
2008,06,21,03,50,2.40
2008,06,21,03,51,1.60
2008,06,21,03,52,1.20
2008,06,21,03,53,1.90
2008,06,21,03,54,1.40
2008,06,21,03,55,2.10
2008,06,21,03,56,1.40
2008,06,21,03,57,1.00
2008,06,21,03,58,2.70
2008,06,21,03,59,1.40
2008,06,21,04,00,1.60
2008,06,21,04,01,3.30
2008,06,21,04,02,3.80
2008,06,21,04,03,4.10
2008,06,21,04,04,5.60
2008,06,21,04,05,5.40
2008,06,21,04,06,5.20
2008,06,21,04,07,4.70
2008,06,21,04,08,3.80
2008,06,21,04,09,4.20
2008,06,21,04,10,3.40
2008,06,21,04,11,4.00
2008,06,21,04,12,2.70
2008,06,21,04,13,5.60
2008,06,21,04,14,6.70
2008,06,21,04,15,6.40
2008,06,21,04,16,4.60
2008,06,21,04,17,4.40
2008,06,21,04,18,2.40
2008,06,21,04,19,3.60
2008,06,21,04,20,2.00
2008,06,21,04,21,2.00
2008,06,21,04,22,0.80
2008,06,21,04,23,0.30
2008,06,21,04,24,1.40
2008,06,21,04,25,3.10
2008,06,21,04,26,1.50
2008,06,21,04,27,0.60
2008,06,21,04,28,0.20
2008,06,21,04,29,0.10
2008,06,21,04,30,0.90
2008,06,21,04,31,1.20
2008,06,21,04,32,0.70
2008,06,21,04,33,0.20
2008,06,21,04,34,2.20
2008,06,21,04,35,1.90
2008,06,21,04,36,1.90
2008,06,21,04,37,3.90
2008,06,21,04,38,3.10
2008,06,21,04,39,3.50
2008,06,21,04,40,2.00
2008,06,21,04,41,0.40
2008,06,21,04,42,2.90
2008,06,21,04,43,1.10
2008,06,21,04,44,2.50
2008,06,21,04,45,2.90
2008,06,21,04,46,1.90
2008,06,21,04,47,0.20
2008,06,21,04,48,0.20
2008,06,21,04,49,0.00
2008,06,21,04,50,0.10
2008,06,21,04,51,0.00
2008,06,21,04,52,0.60
2008,06,21,04,53,0.10
2008,06,21,04,54,1.60
2008,06,21,04,55,1.40
2008,06,21,04,56,0.10
2008,06,21,04,57,0.80
2008,06,21,04,58,1.40
2008,06,21,04,59,0.50
2008,06,21,05,00,0.20
2008,06,21,05,01,0.00
2008,06,21,05,02,0.20
2008,06,21,05,03,2.00
2008,06,21,05,04,1.20
2008,06,21,05,05,0.00
2008,06,21,05,06,0.00
2008,06,21,05,07,0.00
2008,06,21,05,08,0.10
2008,06,21,05,09,0.10
2008,06,21,05,10,0.00
2008,06,21,05,11,0.00
2008,06,21,05,12,0.00
2008,06,21,05,13,0.00
2008,06,21,05,14,0.00
2008,06,21,05,15,0.20
2008,06,21,05,16,0.00
2008,06,21,05,17,0.00
2008,06,21,05,18,0.00
2008,06,21,05,19,0.00
2008,06,21,05,20,0.00
2008,06,21,05,21,0.00
2008,06,21,05,22,0.00
2008,06,21,05,23,0.00
2008,06,21,05,24,0.00
2008,06,21,05,25,0.00
2008,06,21,05,26,0.00
2008,06,21,05,27,0.00
2008,06,21,05,28,0.00
2008,06,21,05,29,0.00
2008,06,21,05,30,0.20
2008,06,21,05,31,1.60
2008,06,21,05,32,0.50
2008,06,21,05,33,0.20
2008,06,21,05,34,0.40
2008,06,21,05,35,0.10
2008,06,21,05,36,0.10
2008,06,21,05,37,1.50
2008,06,21,05,38,2.60
2008,06,21,05,39,1.60
2008,06,21,05,40,0.10
2008,06,21,05,41,0.30
2008,06,21,05,42,1.10
2008,06,21,05,43,0.70
2008,06,21,05,44,0.20
2008,06,21,05,45,0.40
2008,06,21,05,46,1.00
2008,06,21,05,47,2.40
2008,06,21,05,48,1.10
2008,06,21,05,49,0.10
2008,06,21,05,50,0.00
2008,06,21,05,51,0.00
2008,06,21,05,52,0.00
2008,06,21,05,53,0.90
2008,06,21,05,54,1.40
2008,06,21,05,55,0.40
2008,06,21,05,56,1.00
2008,06,21,05,57,0.00
2008,06,21,05,58,0.10
2008,06,21,05,59,0.00
2008,06,21,06,00,0.00
2008,06,21,06,01,0.00
2008,06,21,06,02,0.00
2008,06,21,06,03,0.10
2008,06,21,06,04,1.30
2008,06,21,06,05,2.10
2008,06,21,06,06,0.80
2008,06,21,06,07,1.70
2008,06,21,06,08,0.10
2008,06,21,06,09,0.10
2008,06,21,06,10,0.00
2008,06,21,06,11,0.00
2008,06,21,06,12,0.00
2008,06,21,06,13,0.00
2008,06,21,06,14,0.00
2008,06,21,06,15,0.00
2008,06,21,06,16,0.10
2008,06,21,06,17,0.20
2008,06,21,06,18,0.30
2008,06,21,06,19,0.00
2008,06,21,06,20,0.00
2008,06,21,06,21,0.00
2008,06,21,06,22,0.00
2008,06,21,06,23,0.00
2008,06,21,06,24,0.00
2008,06,21,06,25,0.40
2008,06,21,06,26,1.80
2008,06,21,06,27,1.80
2008,06,21,06,28,0.30
2008,06,21,06,29,0.20
2008,06,21,06,30,0.20
2008,06,21,06,31,0.00
2008,06,21,06,32,0.00
2008,06,21,06,33,0.00
2008,06,21,06,34,0.00
2008,06,21,06,35,0.00
2008,06,21,06,36,0.00
2008,06,21,06,37,0.00
2008,06,21,06,38,0.00
2008,06,21,06,39,0.00
2008,06,21,06,40,0.20
2008,06,21,06,41,0.40
2008,06,21,06,42,0.00
2008,06,21,06,43,0.00
2008,06,21,06,44,0.00
2008,06,21,06,45,0.00
2008,06,21,06,46,0.00
2008,06,21,06,47,0.00
2008,06,21,06,48,0.00
2008,06,21,06,49,0.00
2008,06,21,06,50,0.00
2008,06,21,06,51,0.00
2008,06,21,06,52,0.00
2008,06,21,06,53,0.00
2008,06,21,06,54,0.00
2008,06,21,06,55,0.10
2008,06,21,06,56,0.50
2008,06,21,06,57,0.20
2008,06,21,06,58,0.10
2008,06,21,06,59,0.00
2008,06,21,07,00,0.00
2008,06,21,07,01,0.00
2008,06,21,07,02,0.00
2008,06,21,07,03,0.10
2008,06,21,07,04,0.00
2008,06,21,07,05,0.00
2008,06,21,07,06,0.00
2008,06,21,07,07,0.00
2008,06,21,07,08,0.00
2008,06,21,07,09,0.00
2008,06,21,07,10,0.00
2008,06,21,07,11,0.10
2008,06,21,07,12,0.20
2008,06,21,07,13,0.20
2008,06,21,07,14,0.00
2008,06,21,07,15,0.00
2008,06,21,07,16,0.00
2008,06,21,07,17,0.00
2008,06,21,07,18,0.00
2008,06,21,07,19,0.00
2008,06,21,07,20,0.00
2008,06,21,07,21,0.00
2008,06,21,07,22,0.30
2008,06,21,07,23,0.70
2008,06,21,07,24,0.30
2008,06,21,07,25,0.50
2008,06,21,07,26,2.60
2008,06,21,07,27,1.90
2008,06,21,07,28,1.00
2008,06,21,07,29,3.70
2008,06,21,07,30,3.80
2008,06,21,07,31,4.40
2008,06,21,07,32,3.80
2008,06,21,07,33,4.00
2008,06,21,07,34,3.70
2008,06,21,07,35,2.60
2008,06,21,07,36,3.10
2008,06,21,07,37,2.10
2008,06,21,07,38,4.20
2008,06,21,07,39,2.50
2008,06,21,07,40,0.10
2008,06,21,07,41,0.00
2008,06,21,07,42,0.00
2008,06,21,07,43,0.10
2008,06,21,07,44,1.10
2008,06,21,07,45,4.20
2008,06,21,07,46,4.00
2008,06,21,07,47,4.60
2008,06,21,07,48,3.80
2008,06,21,07,49,1.30
2008,06,21,07,50,2.10
2008,06,21,07,51,1.40
2008,06,21,07,52,2.90
2008,06,21,07,53,1.80
2008,06,21,07,54,0.30
2008,06,21,07,55,0.00
2008,06,21,07,56,0.00
2008,06,21,07,57,0.00
2008,06,21,07,58,0.00
2008,06,21,07,59,0.00
2008,06,21,08,00,0.00
2008,06,21,08,01,0.20
2008,06,21,08,02,2.20
2008,06,21,08,03,1.20
2008,06,21,08,04,0.60
2008,06,21,08,05,0.30
2008,06,21,08,06,0.00
2008,06,21,08,07,0.00
2008,06,21,08,08,0.00
2008,06,21,08,09,0.00
2008,06,21,08,10,0.20
2008,06,21,08,11,0.20
2008,06,21,08,12,0.90
2008,06,21,08,13,0.90
2008,06,21,08,14,1.00
2008,06,21,08,15,0.40
2008,06,21,08,16,0.10
2008,06,21,08,17,0.40
2008,06,21,08,18,0.50
2008,06,21,08,19,1.60
2008,06,21,08,20,1.40
2008,06,21,08,21,3.10
2008,06,21,08,22,3.80
2008,06,21,08,23,2.00
2008,06,21,08,24,0.20
2008,06,21,08,25,0.90
2008,06,21,08,26,0.30
2008,06,21,08,27,0.00
2008,06,21,08,28,0.00
2008,06,21,08,29,0.10
2008,06,21,08,30,0.00
2008,06,21,08,31,0.10
2008,06,21,08,32,0.30
2008,06,21,08,33,0.00
2008,06,21,08,34,0.00
2008,06,21,08,35,0.10
2008,06,21,08,36,0.10
2008,06,21,08,37,0.40
2008,06,21,08,38,0.00
2008,06,21,08,39,0.00
2008,06,21,08,40,0.10
2008,06,21,08,41,0.10
2008,06,21,08,42,0.10
2008,06,21,08,43,0.30
2008,06,21,08,44,0.40
2008,06,21,08,45,0.40
2008,06,21,08,46,0.00
2008,06,21,08,47,0.10
2008,06,21,08,48,1.20
2008,06,21,08,49,0.80
2008,06,21,08,50,0.60
2008,06,21,08,51,0.00
2008,06,21,08,52,0.10
2008,06,21,08,53,0.00
2008,06,21,08,54,0.00
2008,06,21,08,55,0.10
2008,06,21,08,56,0.00
2008,06,21,08,57,0.00
2008,06,21,08,58,0.90
2008,06,21,08,59,0.80
2008,06,21,09,00,2.10
2008,06,21,09,01,2.60
2008,06,21,09,02,2.90
2008,06,21,09,03,3.20
2008,06,21,09,04,2.10
2008,06,21,09,05,2.80
2008,06,21,09,06,3.00
2008,06,21,09,07,2.60
2008,06,21,09,08,0.60
2008,06,21,09,09,0.70
2008,06,21,09,10,0.50
2008,06,21,09,11,1.40
2008,06,21,09,12,2.00
2008,06,21,09,13,2.20
2008,06,21,09,14,1.00
2008,06,21,09,15,1.10
2008,06,21,09,16,2.90
2008,06,21,09,17,3.20
2008,06,21,09,18,1.50
2008,06,21,09,19,2.20
2008,06,21,09,20,2.00
2008,06,21,09,21,0.80
2008,06,21,09,22,2.10
2008,06,21,09,23,3.90
2008,06,21,09,24,3.10
2008,06,21,09,25,1.40
2008,06,21,09,26,0.40
2008,06,21,09,27,0.30
2008,06,21,09,28,0.10
2008,06,21,09,29,0.00
2008,06,21,09,30,0.00
2008,06,21,09,31,0.40
2008,06,21,09,32,0.00
2008,06,21,09,33,0.00
2008,06,21,09,34,0.10
2008,06,21,09,35,0.30
2008,06,21,09,36,0.20
2008,06,21,09,37,0.00
2008,06,21,09,38,0.00
2008,06,21,09,39,0.00
2008,06,21,09,40,0.10
2008,06,21,09,41,0.00
2008,06,21,09,42,0.00
2008,06,21,09,43,0.10
2008,06,21,09,44,0.00
2008,06,21,09,45,0.00
2008,06,21,09,46,0.10
2008,06,21,09,47,0.50
2008,06,21,09,48,0.30
2008,06,21,09,49,1.50
2008,06,21,09,50,1.40
2008,06,21,09,51,2.60
2008,06,21,09,52,4.70
2008,06,21,09,53,3.70
2008,06,21,09,54,1.70
2008,06,21,09,55,1.90
2008,06,21,09,56,4.00
2008,06,21,09,57,4.20
2008,06,21,09,58,3.40
2008,06,21,09,59,0.80
2008,06,21,10,00,2.00
2008,06,21,10,01,2.60
2008,06,21,10,02,1.30
2008,06,21,10,03,0.50
2008,06,21,10,04,3.10
2008,06,21,10,05,0.90
2008,06,21,10,06,1.80
2008,06,21,10,07,3.80
2008,06,21,10,08,2.00
2008,06,21,10,09,1.80
2008,06,21,10,10,5.30
2008,06,21,10,11,7.30
2008,06,21,10,12,4.80
2008,06,21,10,13,6.30
2008,06,21,10,14,4.90
2008,06,21,10,15,6.30
2008,06,21,10,16,9.90
2008,06,21,10,17,7.00
2008,06,21,10,18,9.70
2008,06,21,10,19,8.20
2008,06,21,10,20,5.00
2008,06,21,10,21,3.60
2008,06,21,10,22,2.70
2008,06,21,10,23,1.20
2008,06,21,10,24,3.20
2008,06,21,10,25,6.30
2008,06,21,10,26,4.00
2008,06,21,10,27,12.30
2008,06,21,10,28,7.60
2008,06,21,10,29,9.10
2008,06,21,10,30,8.00
2008,06,21,10,31,8.10
2008,06,21,10,32,10.50
2008,06,21,10,33,7.10
2008,06,21,10,34,4.80
2008,06,21,10,35,2.70
2008,06,21,10,36,4.10
2008,06,21,10,37,3.80
2008,06,21,10,38,3.60
2008,06,21,10,39,4.80
2008,06,21,10,40,8.10
2008,06,21,10,41,4.10
2008,06,21,10,42,3.50
2008,06,21,10,43,3.90
2008,06,21,10,44,4.60
2008,06,21,10,45,3.70
2008,06,21,10,46,4.90
2008,06,21,10,47,7.60
2008,06,21,10,48,8.70
2008,06,21,10,49,3.60
2008,06,21,10,50,3.90
2008,06,21,10,51,3.80
2008,06,21,10,52,2.70
2008,06,21,10,53,3.10
2008,06,21,10,54,7.60
2008,06,21,10,55,5.70
2008,06,21,10,56,8.50
2008,06,21,10,57,10.60
2008,06,21,10,58,11.40
2008,06,21,10,59,11.70
2008,06,21,11,00,10.10
2008,06,21,11,01,3.60
2008,06,21,11,02,3.30
2008,06,21,11,03,0.40
2008,06,21,11,04,2.50
2008,06,21,11,05,5.40
2008,06,21,11,06,7.80
2008,06,21,11,07,3.90
2008,06,21,11,08,5.10
2008,06,21,11,09,2.60
2008,06,21,11,10,2.20
2008,06,21,11,11,3.90
2008,06,21,11,12,1.90
2008,06,21,11,13,1.60
2008,06,21,11,14,0.00
2008,06,21,11,15,2.30
2008,06,21,11,16,4.70
2008,06,21,11,17,6.40
2008,06,21,11,18,5.10
2008,06,21,11,19,4.80
2008,06,21,11,20,2.30
2008,06,21,11,21,0.90
2008,06,21,11,22,1.20
2008,06,21,11,23,1.70
2008,06,21,11,24,1.30
2008,06,21,11,25,1.50
2008,06,21,11,26,2.00
2008,06,21,11,27,1.80
2008,06,21,11,28,1.00
2008,06,21,11,29,1.40
2008,06,21,11,30,2.00
2008,06,21,11,31,1.90
2008,06,21,11,32,3.70
2008,06,21,11,33,4.50
2008,06,21,11,34,6.10
2008,06,21,11,35,6.50
2008,06,21,11,36,8.10
2008,06,21,11,37,9.40
2008,06,21,11,38,7.20
2008,06,21,11,39,6.30
2008,06,21,11,40,6.50
2008,06,21,11,41,3.10
2008,06,21,11,42,3.20
2008,06,21,11,43,1.20
2008,06,21,11,44,2.40
2008,06,21,11,45,4.10
2008,06,21,11,46,1.40
2008,06,21,11,47,3.60
2008,06,21,11,48,5.00
2008,06,21,11,49,1.90
2008,06,21,11,50,4.20
2008,06,21,11,51,4.90
2008,06,21,11,52,6.10
2008,06,21,11,53,1.60
2008,06,21,11,54,6.80
2008,06,21,11,55,6.10
2008,06,21,11,56,5.20
2008,06,21,11,57,5.40
2008,06,21,11,58,3.60
2008,06,21,11,59,8.30
2008,06,21,12,00,6.90
2008,06,21,12,01,5.10
2008,06,21,12,02,4.90
2008,06,21,12,03,10.20
2008,06,21,12,04,13.10
2008,06,21,12,05,6.90
2008,06,21,12,06,8.80
2008,06,21,12,07,11.00
2008,06,21,12,08,12.30
2008,06,21,12,09,12.10
2008,06,21,12,10,14.90
2008,06,21,12,11,9.60
2008,06,21,12,12,6.70
2008,06,21,12,13,4.40
2008,06,21,12,14,4.90
2008,06,21,12,15,3.60
2008,06,21,12,16,1.40
2008,06,21,12,17,3.10
2008,06,21,12,18,5.30
2008,06,21,12,19,2.60
2008,06,21,12,20,7.50
2008,06,21,12,21,6.80
2008,06,21,12,22,7.90
2008,06,21,12,23,3.30
2008,06,21,12,24,4.50
2008,06,21,12,25,3.50
2008,06,21,12,26,4.20
2008,06,21,12,27,5.30
2008,06,21,12,28,7.20
2008,06,21,12,29,7.40
2008,06,21,12,30,6.30
2008,06,21,12,31,8.70
2008,06,21,12,32,9.20
2008,06,21,12,33,12.60
2008,06,21,12,34,8.50
2008,06,21,12,35,13.10
2008,06,21,12,36,16.80
2008,06,21,12,37,10.10
2008,06,21,12,38,10.60
2008,06,21,12,39,9.70
2008,06,21,12,40,9.70
2008,06,21,12,41,8.30
2008,06,21,12,42,5.90
2008,06,21,12,43,8.00
2008,06,21,12,44,6.40
2008,06,21,12,45,5.20
2008,06,21,12,46,3.90
2008,06,21,12,47,4.70
2008,06,21,12,48,8.40
2008,06,21,12,49,11.70
2008,06,21,12,50,10.60
2008,06,21,12,51,11.70
2008,06,21,12,52,14.60
2008,06,21,12,53,10.70
2008,06,21,12,54,9.20
2008,06,21,12,55,8.70
2008,06,21,12,56,8.50
2008,06,21,12,57,6.10
2008,06,21,12,58,4.20
2008,06,21,12,59,6.40
2008,06,21,13,00,4.00
2008,06,21,13,01,1.30
2008,06,21,13,02,0.80
2008,06,21,13,03,2.10
2008,06,21,13,04,2.40
2008,06,21,13,05,0.40
2008,06,21,13,06,3.00
2008,06,21,13,07,3.60
2008,06,21,13,08,3.00
2008,06,21,13,09,2.70
2008,06,21,13,10,4.70
2008,06,21,13,11,8.70
2008,06,21,13,12,7.90
2008,06,21,13,13,5.20
2008,06,21,13,14,5.00
2008,06,21,13,15,6.20
2008,06,21,13,16,6.70
2008,06,21,13,17,6.90
2008,06,21,13,18,5.10
2008,06,21,13,19,4.60
2008,06,21,13,20,3.40
2008,06,21,13,21,2.00
2008,06,21,13,22,1.40
2008,06,21,13,23,1.50
2008,06,21,13,24,0.60
2008,06,21,13,25,0.40
2008,06,21,13,26,3.10
2008,06,21,13,27,5.80
2008,06,21,13,28,7.80
2008,06,21,13,29,8.10
2008,06,21,13,30,6.30
2008,06,21,13,31,0.80
2008,06,21,13,32,0.30
2008,06,21,13,33,0.20
2008,06,21,13,34,1.00
2008,06,21,13,35,0.30
2008,06,21,13,36,0.30
2008,06,21,13,37,3.70
2008,06,21,13,38,13.40
2008,06,21,13,39,15.40
2008,06,21,13,40,14.40
2008,06,21,13,41,10.30
2008,06,21,13,42,5.90
2008,06,21,13,43,2.50
2008,06,21,13,44,3.90
2008,06,21,13,45,5.00
2008,06,21,13,46,6.30
2008,06,21,13,47,4.90
2008,06,21,13,48,3.20
2008,06,21,13,49,2.10
2008,06,21,13,50,2.40
2008,06,21,13,51,7.50
2008,06,21,13,52,8.70
2008,06,21,13,53,8.20
2008,06,21,13,54,10.60
2008,06,21,13,55,11.50
2008,06,21,13,56,5.70
2008,06,21,13,57,3.00
2008,06,21,13,58,3.70
2008,06,21,13,59,7.40
2008,06,21,14,00,7.00
2008,06,21,14,01,7.40
2008,06,21,14,02,14.10
2008,06,21,14,03,8.40
2008,06,21,14,04,7.50
2008,06,21,14,05,9.30
2008,06,21,14,06,4.70
2008,06,21,14,07,5.20
2008,06,21,14,08,5.90
2008,06,21,14,09,5.50
2008,06,21,14,10,7.20
2008,06,21,14,11,7.10
2008,06,21,14,12,7.20
2008,06,21,14,13,6.30
2008,06,21,14,14,1.30
2008,06,21,14,15,2.50
2008,06,21,14,16,6.30
2008,06,21,14,17,7.20
2008,06,21,14,18,2.20
2008,06,21,14,19,2.10
2008,06,21,14,20,4.70
2008,06,21,14,21,0.40
2008,06,21,14,22,2.00
2008,06,21,14,23,3.80
2008,06,21,14,24,5.80
2008,06,21,14,25,5.70
2008,06,21,14,26,3.30
2008,06,21,14,27,4.40
2008,06,21,14,28,5.70
2008,06,21,14,29,6.40
2008,06,21,14,30,4.80
2008,06,21,14,31,3.30
2008,06,21,14,32,5.20
2008,06,21,14,33,11.50
2008,06,21,14,34,15.90
2008,06,21,14,35,8.60
2008,06,21,14,36,10.30
2008,06,21,14,37,6.00
2008,06,21,14,38,7.30
2008,06,21,14,39,3.30
2008,06,21,14,40,10.70
2008,06,21,14,41,7.50
2008,06,21,14,42,7.70
2008,06,21,14,43,8.30
2008,06,21,14,44,5.10
2008,06,21,14,45,4.10
2008,06,21,14,46,4.90
2008,06,21,14,47,3.00
2008,06,21,14,48,3.00
2008,06,21,14,49,4.20
2008,06,21,14,50,3.40
2008,06,21,14,51,5.40
2008,06,21,14,52,6.90
2008,06,21,14,53,5.40
2008,06,21,14,54,5.70
2008,06,21,14,55,5.20
2008,06,21,14,56,2.60
2008,06,21,14,57,3.20
2008,06,21,14,58,2.40
2008,06,21,14,59,2.70
2008,06,21,15,00,4.30
2008,06,21,15,01,5.30
2008,06,21,15,02,1.20
2008,06,21,15,03,4.00
2008,06,21,15,04,4.60
2008,06,21,15,05,5.00
2008,06,21,15,06,6.40
2008,06,21,15,07,5.90
2008,06,21,15,08,7.50
2008,06,21,15,09,6.70
2008,06,21,15,10,9.80
2008,06,21,15,11,9.40
2008,06,21,15,12,10.20
2008,06,21,15,13,9.30
2008,06,21,15,14,3.70
2008,06,21,15,15,7.10
2008,06,21,15,16,3.30
2008,06,21,15,17,1.60
2008,06,21,15,18,1.50
2008,06,21,15,19,2.20
2008,06,21,15,20,0.70
2008,06,21,15,21,4.90
2008,06,21,15,22,3.70
2008,06,21,15,23,8.80
2008,06,21,15,24,6.80
2008,06,21,15,25,3.60
2008,06,21,15,26,6.00
2008,06,21,15,27,2.50
2008,06,21,15,28,1.40
2008,06,21,15,29,2.60
2008,06,21,15,30,1.80
2008,06,21,15,31,5.00
2008,06,21,15,32,6.20
2008,06,21,15,33,5.00
2008,06,21,15,34,6.90
2008,06,21,15,35,7.40
2008,06,21,15,36,6.50
2008,06,21,15,37,6.00
2008,06,21,15,38,4.50
2008,06,21,15,39,4.90
2008,06,21,15,40,2.00
2008,06,21,15,41,1.40
2008,06,21,15,42,6.40
2008,06,21,15,43,5.50
2008,06,21,15,44,7.10
2008,06,21,15,45,4.20
2008,06,21,15,46,5.20
2008,06,21,15,47,6.00
2008,06,21,15,48,9.10
2008,06,21,15,49,12.30
2008,06,21,15,50,10.40
2008,06,21,15,51,4.00
2008,06,21,15,52,9.40
2008,06,21,15,53,9.60
2008,06,21,15,54,6.60
2008,06,21,15,55,5.70
2008,06,21,15,56,6.40
2008,06,21,15,57,6.40
2008,06,21,15,58,7.20
2008,06,21,15,59,5.30
2008,06,21,16,00,0.70
2008,06,21,16,01,3.20
2008,06,21,16,02,2.40
2008,06,21,16,03,2.40
2008,06,21,16,04,1.90
2008,06,21,16,05,3.00
2008,06,21,16,06,3.60
2008,06,21,16,07,2.50
2008,06,21,16,08,1.90
2008,06,21,16,09,4.40
2008,06,21,16,10,4.50
2008,06,21,16,11,2.00
2008,06,21,16,12,0.80
2008,06,21,16,13,5.00
2008,06,21,16,14,5.80
2008,06,21,16,15,6.40
2008,06,21,16,16,5.70
2008,06,21,16,17,5.70
2008,06,21,16,18,8.00
2008,06,21,16,19,7.60
2008,06,21,16,20,3.80
2008,06,21,16,21,1.40
2008,06,21,16,22,4.50
2008,06,21,16,23,3.30
2008,06,21,16,24,3.90
2008,06,21,16,25,4.80
2008,06,21,16,26,3.90
2008,06,21,16,27,3.10
2008,06,21,16,28,0.80
2008,06,21,16,29,2.40
2008,06,21,16,30,3.20
2008,06,21,16,31,1.50
2008,06,21,16,32,0.00
2008,06,21,16,33,2.30
2008,06,21,16,34,1.50
2008,06,21,16,35,0.70
2008,06,21,16,36,0.90
2008,06,21,16,37,2.20
2008,06,21,16,38,3.20
2008,06,21,16,39,2.80
2008,06,21,16,40,3.90
2008,06,21,16,41,4.40
2008,06,21,16,42,4.50
2008,06,21,16,43,5.00
2008,06,21,16,44,5.30
2008,06,21,16,45,6.20
2008,06,21,16,46,5.20
2008,06,21,16,47,6.20
2008,06,21,16,48,7.00
2008,06,21,16,49,4.90
2008,06,21,16,50,5.30
2008,06,21,16,51,3.80
2008,06,21,16,52,4.20
2008,06,21,16,53,1.90
2008,06,21,16,54,2.50
2008,06,21,16,55,3.50
2008,06,21,16,56,2.10
2008,06,21,16,57,1.60
2008,06,21,16,58,0.80
2008,06,21,16,59,1.70
2008,06,21,17,00,0.30
2008,06,21,17,01,4.20
2008,06,21,17,02,5.80
2008,06,21,17,03,2.90
2008,06,21,17,04,5.20
2008,06,21,17,05,6.90
2008,06,21,17,06,7.40
2008,06,21,17,07,8.40
2008,06,21,17,08,5.80
2008,06,21,17,09,4.90
2008,06,21,17,10,4.80
2008,06,21,17,11,6.00
2008,06,21,17,12,4.90
2008,06,21,17,13,5.60
2008,06,21,17,14,3.80
2008,06,21,17,15,5.70
2008,06,21,17,16,3.90
2008,06,21,17,17,4.30
2008,06,21,17,18,3.50
2008,06,21,17,19,7.50
2008,06,21,17,20,6.80
2008,06,21,17,21,3.60
2008,06,21,17,22,1.50
2008,06,21,17,23,2.90
2008,06,21,17,24,3.50
2008,06,21,17,25,3.60
2008,06,21,17,26,4.50
2008,06,21,17,27,5.00
2008,06,21,17,28,1.30
2008,06,21,17,29,0.40
2008,06,21,17,30,2.10
2008,06,21,17,31,1.60
2008,06,21,17,32,2.10
2008,06,21,17,33,3.30
2008,06,21,17,34,3.60
2008,06,21,17,35,2.00
2008,06,21,17,36,1.40
2008,06,21,17,37,5.40
2008,06,21,17,38,6.10
2008,06,21,17,39,6.30
2008,06,21,17,40,5.60
2008,06,21,17,41,2.80
2008,06,21,17,42,3.00
2008,06,21,17,43,5.40
2008,06,21,17,44,5.40
2008,06,21,17,45,6.70
2008,06,21,17,46,5.00
2008,06,21,17,47,6.90
2008,06,21,17,48,6.40
2008,06,21,17,49,4.20
2008,06,21,17,50,3.40
2008,06,21,17,51,4.80
2008,06,21,17,52,5.80
2008,06,21,17,53,5.30
2008,06,21,17,54,8.00
2008,06,21,17,55,7.50
2008,06,21,17,56,7.50
2008,06,21,17,57,5.80
2008,06,21,17,58,1.10
2008,06,21,17,59,4.30
2008,06,21,18,00,1.90
2008,06,21,18,01,2.90
2008,06,21,18,02,5.20
2008,06,21,18,03,7.50
2008,06,21,18,04,4.70
2008,06,21,18,05,3.50